Volver al catálogo

FENGYUN 1C DEB

ActivoPO
NORAD 29802·DEBRIS·🇨🇳 China

Lanzado May 10, 1999 desde Taiyuan Satellite Launch Center

Loading…

Próximos Pases (próximas 24 horas)

TLE

ActualizadoSource: Space-Track

Época: Sep 13, 2026, 20:05 UTC

1 29802U 99025CU  26256.83741054  .00010844  00000-0  18090-2 0  9996
2 29802  98.6340  24.9350 0033188 201.0122 319.6568 14.69783150 25039

Sigue FENGYUN 1C DEB en tiempo real con AllMySat

Download on the App Store